Wind_Speed
18 15 7 8 9 5 10 8 5 1 7 8 9 5 7 10 10 12 13 11 11 12 14 15 13 14 14 14 15 16 16 16 17 19 21 20 16 17 22 24 21 25 20
23 22 14 15 13 7 11 13 12 10 8 3 4 4 7 8 8 7 6 8 7 7 7 8 10 11 13 14 17 19 21 18 17 19 21 19 16 17 21 20 18 19 20
27 26 21 23 19 12 13 18 20 17 11 9 6 6 5 5 7 5 6 5 5 6 6 6 8 9 8 9 12 14 15 16 17 18 20 18 13 16 18 19 18 15 16
33 30 29 26 25 19 17 19 22 22 19 15 13 7 8 6 7 10 10 6 7 3 4 5 5 9 8 8 8 7 11 10 12 12 14 14 9 11 16 18 18 17 16
41 37 36 31 30 28 22 21 26 28 26 20 19 16 11 12 12 10 11 8 10 10 3 2 4 2 3 5 9 8 9 11 10 9 8 8 10 7 16 17 17 16 16
53 47 42 35 34 33 29 25 28 30 29 27 25 22 19 16 15 13 15 14 10 8 6 6 4 3 5 3 5 8 9 6 6 9 5 3 3 6 14 20 16 18 17
57 55 52 49 47 42 39 34 33 34 36 34 30 28 27 24 22 18 17 19 17 16 13 9 8 7 7 3 5 4 4 7 7 3 4 4 2 2 6 13 19 19 18
54 60 54 54 50 52 48 43 39 42 41 41 40 36 34 33 31 31 24 21 25 22 19 21 20 17 13 15 9 8 5 2 4 1 2 4 5 1 7 10 16 20 21
64 66 62 59 55 57 54 52 50 49 49 49 49 47 43 42 40 39 37 32 30 33 34 27 27 26 24 21 19 15 14 14 13 4 8 6 4 3 3 5 13 15 21
71 73 65 60 64 62 65 60 55 55 55 55 51 57 53 49 48 48 47 44 43 40 39 37 38 38 29 34 26 25 23 24 23 18 11 15 18 16 15 16 10 11 13
71 66 65 61 70 68 66 67 63 59 58 60 63 62 60 63 59 53 54 51 51 52 48 44 44 40 38 39 41 37 32 29 30 25 27 25 25 19 21 17 20 17 15
88 88 81 74 72 75 76 75 75 77 75 69 65 67 69 67 65 64 60 58 56 56 57 55 53 51 46 45 43 46 41 43 37 37 35 31 34 28 27 26 21 21 19
91 90 90 92 87 85 76 78 78 76 82 79 73 71 73 75 71 71 73 66 63 62 61 60 59 58 59 54 51 47 47 47 48 52 56 51 44 41 41 38 34 33 33
98 96 95 94 94 89 87 85 81 81 82 79 83 80 70 74 74 77 78 77 73 66 68 67 67 66 66 64 60 57 57 56 56 54 56 54 51 45 49 48 42 40 40
108 111 111 109 108 107 102 100 97 99 96 88 89 86 82 84 82 78 76 79 78 76 71 69 67 69 69 70 71 70 68 66 63 61 60 62 60 55 56 57 46 47 50
104 104 103 103 103 101 100 99 99 98 98 102 104 101 100 99 94 92 88 86 81 81 79 74 79 79 79 72 73 74 75 74 74 68 65 66 63 68 66 64 65 63 66
101 103 104 105 106 106 104 104 101 100 100 99 99 99 99 99 98 102 102 102 100 95 89 84 82 79 77 83 80 77 74 73 76 73 74 75 77 77 78 79 84 85 85
102 101 102 104 105 105 106 108 108 107 106 105 103 102 101 101 101 101 104 109 109 108 106 100 95 94 97 98 98 96 92 89 87 87 91 89 90 88 89 89 87 92 90
108 108 107 106 107 107 106 107 108 109 110 111 110 109 108 108 108 107 106 107 109 113 110 113 114 111 108 107 109 107 109 107 101 96 95 101 98 93 99 102 95 95 97
114 114 113 112 113 113 112 112 111 111 111 112 113 115 116 117 117 116 115 115 114 115 117 117 116 117 120 123 123 124 121 120 117 116 115 111 113 113 107 110 107 105 105
115 116 116 115 116 116 116 116 115 116 116 116 116 117 118 119 121 122 123 124 124 123 122 122 122 123 123 123 124 125 125 128 124 129 125 123 122 122 125 120 120 120 116
112 112 112 112 112 113 113 114 115 116 117 118 118 118 119 120 122 123 124 125 126 126 126 127 128 129 130 130 131 131 131 130 129 129 129 130 134 132 131 133 136 134 136
112 111 113 113 113 114 115 115 115 116 116 117 118 119 121 123 124 124 124 124 124 126 127 127 127 129 130 131 132 133 135 136 136 137 136 136 136 136 137 137 140 141 144
119 114 112 112 111 111 112 112 112 112 113 113 114 115 116 117 119 122 123 124 124 126 127 127 127 128 130 132 133 135 137 138 138 138 137 137 138 140 141 142 144 145 146
122 121 119 117 116 116 116 115 115 115 114 114 114 115 116 116 117 118 119 121 122 124 126 127 129 130 131 132 133 133 134 135 135 134 134 135 137 140 143 145 146 146 146
123 124 122 119 120 120 119 119 119 118 119 118 119 119 120 120 121 121 122 123 123 124 126 128 129 131 132 132 134 134 132 132 132 132 133 134 138 138 139 137 137 138 139
Wind_Direction
279 255 266 215 206 260 220 173 154 312 40 22 10 13 12 38 58 75 71 71 65 66 63 64 78 82 77 73 67 65 68 70 71 62 60 67 97 120 125 134 142 160 154
257 248 242 242 227 254 227 224 210 222 232 279 331 33 9 6 19 16 47 74 75 73 72 72 64 57 63 70 72 67 65 61 68 64 57 65 97 120 129 142 150 160 165
245 245 232 245 235 254 263 236 233 227 222 233 256 285 304 325 337 0 28 91 96 83 62 48 37 32 30 37 45 55 57 63 59 66 63 60 85 127 136 155 160 168 173
245 247 230 226 245 244 260 235 232 233 225 227 233 260 275 257 293 311 307 345 0 44 75 61 27 29 21 17 11 12 20 33 50 53 76 63 84 136 150 161 171 177 180
247 246 240 228 236 235 248 241 238 233 232 233 237 253 245 261 265 249 263 305 310 315 276 61 68 76 65 62 58 63 70 66 57 46 52 72 88 158 179 183 190 193 199
255 252 239 224 227 231 230 236 253 237 233 232 239 240 241 242 251 259 253 243 264 278 289 284 285 40 8 36 58 61 30 24 62 64 43 59 96 147 200 207 207 217 224
254 247 242 236 237 230 231 228 238 243 243 237 234 235 234 244 249 247 245 243 243 229 251 271 255 273 256 308 26 46 23 340 345 8 54 32 330 227 220 226 231 237 246
241 242 242 245 237 232 234 235 244 248 248 249 245 242 245 245 251 259 253 244 247 235 240 273 256 251 243 265 256 268 256 191 266 344 57 78 73 197 242 243 242 240 247
240 238 245 245 236 233 238 242 241 247 249 247 247 250 258 258 260 260 262 254 252 250 253 265 259 250 236 227 210 231 242 247 240 246 262 250 255 294 294 260 259 254 246
241 247 252 243 239 240 243 244 241 242 247 251 251 251 254 255 257 260 260 263 264 257 256 257 259 262 266 243 239 241 240 236 235 240 234 241 219 231 251 282 246 258 263
232 239 242 237 233 238 243 244 244 246 246 251 255 260 259 256 256 255 258 260 262 265 267 265 264 269 264 272 264 258 246 242 243 246 239 263 246 254 223 219 226 245 248
233 235 236 237 243 240 244 249 248 252 254 251 251 256 263 264 262 258 260 259 260 262 264 266 267 265 265 268 265 265 265 258 256 263 272 269 248 255 241 233 232 239 237
232 234 237 240 242 247 247 250 257 254 248 253 253 256 259 260 263 267 267 265 263 260 265 262 266 270 267 265 263 263 264 264 268 257 267 273 262 263 245 236 236 242 243
236 237 240 241 244 241 243 245 244 247 248 252 249 255 252 256 262 264 265 267 266 264 264 264 266 267 267 268 262 264 267 267 265 266 260 267 264 263 252 246 244 245 242
240 243 245 248 250 251 251 252 252 249 249 246 248 250 248 250 254 253 254 259 264 266 266 266 268 272 268 267 268 266 266 264 264 265 263 261 261 256 258 251 244 251 256
246 246 247 248 249 252 253 254 254 253 252 251 253 256 255 251 248 249 250 253 251 253 257 258 262 267 267 262 263 263 264 263 262 259 257 257 260 260 265 250 250 258 262
245 247 248 248 249 249 251 253 254 254 254 254 254 254 254 255 254 251 251 253 252 252 250 251 247 248 248 262 264 256 256 258 260 256 256 255 258 259 260 258 264 266 268
247 248 249 250 250 250 252 252 252 253 255 257 257 256 256 256 256 255 252 251 253 256 256 252 250 249 249 252 253 256 248 253 254 260 259 256 260 264 259 262 264 262 264
249 249 250 251 252 253 253 253 253 254 255 256 257 257 257 258 257 257 256 256 256 255 256 256 256 257 252 249 251 254 254 256 253 252 256 256 260 259 255 259 262 256 261
250 250 251 251 252 253 253 254 255 256 256 256 256 255 256 256 257 259 259 258 258 257 257 257 257 258 257 258 260 262 260 255 254 255 255 256 256 257 258 255 256 258 258
253 253 253 253 253 253 254 255 256 256 257 257 257 258 258 257 257 257 258 259 259 259 260 260 261 262 262 262 261 262 261 262 261 258 258 257 256 258 258 256 254 256 257
251 253 254 254 255 255 256 255 255 256 256 257 257 258 259 259 260 260 260 260 260 261 261 262 262 262 262 263 264 264 264 264 263 263 262 262 260 261 259 257 256 258 261
252 252 253 254 254 254 255 256 257 257 257 257 257 257 258 259 260 261 262 263 263 263 263 264 264 264 264 264 264 265 265 265 265 265 265 265 264 263 262 262 262 262 262
256 254 254 255 255 256 256 256 257 257 258 258 258 259 260 260 261 261 262 263 264 264 264 265 266 266 266 267 266 266 265 265 265 266 266 266 266 266 265 264 264 264 264
255 258 258 258 257 257 257 257 257 258 259 260 261 261 262 262 262 263 263 263 264 264 264 264 264 265 266 267 267 268 268 269 269 269 269 269 269 268 267 266 265 265 265
255 257 258 259 260 260 261 261 261 261 261 261 261 262 262 263 263 263 264 264 265 266 266 266 266 267 267 268 268 269 270 270 270 270 270 268 267 267 268 269 269 268 268
Height
11021 11022 11022 11024 11025 11026 11027 11026 11025 11028 11027 11026 11025 11023 11022 11021 11018 11017 11016 11015 11014 11012 11011 11010 11009 11008 11007 11006 11004 11003 11001 10999 10998 10996 10995 10994 10995 10995 10994 10996 10997 10998 10999
11018 11021 11020 11021 11023 11023 11025 11026 11026 11026 11026 11027 11028 11025 11024 11022 11020 11019 11018 11016 11016 11014 11013 11013 11012 11011 11010 11009 11007 11006 11006 11004 11003 11001 11000 10999 10999 10999 11000 11001 11002 11003 11004
11012 11016 11017 11017 11019 11021 11022 11023 11023 11023 11024 11024 11025 11025 11023 11021 11023 11020 11020 11018 11016 11015 11014 11014 11013 11013 11012 11011 11011 11010 11009 11008 11007 11005 11004 11003 11003 11003 11004 11004 11006 11007 11007
11005 11009 11012 11012 11015 11017 11019 11021 11022 11021 11020 11020 11021 11022 11022 11021 11020 11021 11021 11020 11018 11016 11015 11014 11014 11014 11014 11013 11012 11011 11011 11010 11010 11009 11007 11007 11007 11007 11007 11007 11008 11009 11009
10995 11001 11005 11006 11009 11012 11013 11015 11017 11017 11017 11017 11018 11019 11019 11019 11019 11019 11018 11018 11018 11017 11015 11014 11013 11014 11013 11012 11012 11011 11011 11010 11010 11009 11009 11008 11008 11009 11009 11010 11010 11010 11011
10983 10989 10994 10998 11001 11004 11005 11008 11011 11013 11013 11013 11013 11014 11016 11015 11015 11015 11017 11016 11017 11017 11015 11014 11013 11013 11014 11013 11011 11012 11011 11011 11011 11010 11010 11009 11008 11009 11011 11012 11012 11011 11010
10968 10973 10982 10988 10993 10994 10996 10998 11002 11005 11006 11007 11007 11008 11008 11010 11011 11010 11012 11015 11015 11014 11012 11013 11012 11011 11011 11012 11012 11012 11012 11011 11011 11010 11010 11010 11010 11009 11009 11011 11012 11012 11012
10956 10958 10967 10974 10981 10984 10986 10989 10992 10996 10999 11000 11001 11002 11002 11002 11003 11005 11006 11008 11011 11011 11011 11009 11010 11008 11008 11008 11010 11011 11011 11010 11010 11010 11010 11009 11008 11008 11007 11006 11007 11008 11009
10940 10944 10953 10961 10966 10971 10975 10978 10981 10985 10988 10990 10991 10993 10995 10996 10997 10998 10999 11001 11002 11003 11006 11006 11005 11005 11003 11002 11002 11005 11007 11007 11006 11007 11007 11007 11006 11006 11006 11004 11004 11003 11004
10926 10928 10937 10946 10951 10956 10960 10965 10968 10970 10975 10976 10981 10981 10984 10985 10987 10989 10989 10991 10992 10993 10995 10997 10997 10997 10998 10998 10996 10996 10997 10999 11000 11001 11003 11002 11000 10999 11000 11001 10999 10998 10997
10913 10914 10920 10927 10932 10938 10943 10948 10953 10956 10959 10962 10964 10966 10971 10973 10975 10976 10977 10980 10980 10983 10984 10985 10986 10987 10988 10990 10990 10990 10990 10989 10991 10991 10993 10997 10995 10994 10991 10989 10989 10991 10993
10893 10896 10901 10906 10912 10918 10923 10930 10935 10939 10942 10946 10948 10950 10952 10955 10958 10962 10962 10964 10966 10969 10970 10972 10973 10974 10976 10977 10980 10981 10981 10982 10982 10981 10981 10984 10986 10986 10985 10983 10981 10982 10984
10874 10878 10881 10885 10895 10898 10901 10906 10913 10919 10923 10926 10929 10931 10934 10937 10939 10942 10945 10947 10948 10952 10953 10954 10957 10959 10960 10962 10963 10965 10967 10969 10970 10969 10969 10971 10972 10973 10973 10971 10970 10973 10972
10852 10856 10860 10864 10870 10878 10882 10887 10892 10896 10899 10905 10910 10914 10918 10920 10922 10924 10925 10926 10929 10933 10935 10937 10938 10940 10943 10944 10945 10948 10950 10952 10952 10953 10953 10954 10956 10957 10959 10959 10957 10958 10958
10830 10834 10840 10845 10847 10851 10857 10861 10866 10872 10877 10882 10886 10891 10896 10898 10904 10907 10907 10909 10909 10912 10915 10916 10918 10919 10921 10924 10926 10928 10931 10932 10935 10937 10937 10937 10938 10940 10942 10945 10943 10943 10946
10805 10810 10817 10821 10823 10827 10831 10834 10838 10845 10850 10856 10861 10866 10869 10872 10876 10882 10886 10889 10891 10892 10894 10896 10898 10898 10900 10902 10905 10905 10908 10911 10912 10914 10917 10919 10920 10922 10924 10923 10923 10925 10926
10776 10780 10786 10792 10796 10800 10805 10808 10812 10816 10820 10827 10834 10838 10842 10846 10848 10852 10857 10860 10864 10868 10871 10873 10874 10876 10876 10878 10881 10884 10884 10886 10887 10891 10895 10896 10898 10900 10902 10903 10903 10903 10903
10749 10755 10760 10764 10767 10773 10778 10781 10785 10789 10793 10798 10805 10810 10814 10816 10820 10824 10828 10831 10833 10836 10840 10846 10848 10848 10850 10851 10852 10858 10860 10861 10865 10866 10864 10868 10870 10870 10873 10875 10875 10876 10876
10720 10725 10730 10735 10739 10744 10749 10753 10757 10762 10767 10770 10773 10778 10781 10785 10788 10792 10798 10800 10803 10805 10807 10810 10813 10817 10819 10821 10821 10825 10828 10832 10835 10837 10841 10843 10841 10844 10845 10845 10846 10847 10848
10687 10694 10701 10706 10709 10713 10717 10722 10728 10733 10736 10740 10743 10746 10749 10752 10755 10759 10763 10766 10769 10773 10775 10777 10779 10783 10786 10788 10790 10791 10795 10799 10802 10805 10808 10811 10813 10815 10816 10819 10818 10819 10820
10655 10660 10665 10673 10678 10682 10686 10690 10696 10700 10704 10708 10711 10713 10717 10720 10722 10725 10729 10731 10734 10739 10741 10743 10745 10746 10749 10750 10753 10754 10757 10758 10762 10766 10768 10774 10776 10777 10777 10781 10783 10783 10784
10622 10628 10634 10639 10643 10647 10652 10657 10663 10668 10671 10674 10678 10680 10682 10685 10688 10691 10693 10696 10697 10699 10703 10706 10707 10709 10711 10713 10714 10716 10715 10718 10721 10724 10725 10729 10734 10737 10740 10740 10742 10743 10744
10587 10594 10598 10604 10610 10614 10619 10623 10628 10632 10636 10640 10643 10646 10648 10651 10653 10655 10658 10661 10661 10663 10664 10667 10669 10669 10671 10671 10673 10674 10675 10675 10677 10679 10683 10686 10690 10693 10693 10695 10693 10695 10696
10549 10560 10567 10572 10577 10581 10586 10590 10594 10597 10600 10603 10607 10610 10613 10615 10617 10619 10622 10624 10625 10626 10627 10627 10628 10628 10628 10628 10629 10629 10628 10631 10634 10636 10640 10643 10644 10642 10643 10643 10641 10640 10640
10518 10521 10526 10534 10541 10546 10551 10555 10559 10563 10567 10570 10573 10576 10579 10582 10584 10584 10585 10586 10586 10587 10588 10587 10587 10588 10587 10586 10584 10584 10585 10584 10587 10591 10595 10595 10594 10589 10585 10586 10587 10588 10588
10487 10489 10492 10499 10505 10510 10515 10520 10523 10527 10530 10534 10537 10540 10543 10546 10547 10548 10548 10549 10550 10550 10549 10548 10546 10544 10544 10544 10540 10543 10546 10546 10545 10545 10545 10540 10532 10529 10530 10536 10537 10537 10539